This demonstration page uses our WeatherBlox Daily Observations layout. Learn more.

Left ArrowRight Arrow

Hourly Observations for November 2, 2020

Temp ( °F °C ) Dew Point ( °F °C ) Humidity (%) Winds ( mph kmh ) Pressure ( in mb ) Visibility ( mi km ) Precip ( " mm )
12:52 am 00:52 Mostly Clear 31 -0.6 22 -5.6 69 69 SSE 8 13 30.46 1031 10 16 0.00 0.00
1:52 am 01:52 Clear 31 -0.6 21 -6.1 67 67 SSE 9 15 30.44 1031 10 16 0.00 0.00
2:52 am 02:52 Clear 32 0 22 -5.6 66 66 SE 10 17 30.42 1030 10 16 0.00 0.00
3:52 am 03:52 Clear 31 -0.6 22 -5.6 69 69 SSE 10 17 30.40 1029 10 16 0.00 0.00
4:52 am 04:52 Mostly Clear 30 -1.1 22 -5.6 72 72 SSE 9 15 30.38 1029 10 16 0.00 0.00
5:52 am 05:52 Partly Cloudy 31 -0.6 22 -5.6 69 69 SSE 9 15 30.37 1028 10 16 0.00 0.00
6:52 am 06:52 Partly Cloudy 31 -0.6 22 -5.6 69 69 SSE 10 17 30.35 1028 10 16 0.00 0.00
7:52 am 07:52 Partly Cloudy 34 1.1 23 -5 64 64 SSE 10 17 30.34 1028 10 16 0.00 0.00
8:52 am 08:52 Partly Cloudy 39 3.9 24 -4.4 55 55 SSE 8 13 30.34 1027 10 16 0.00 0.00
9:52 am 09:52 Partly Cloudy 46 7.8 25 -3.9 44 44 SSW 7 11 30.31 1027 10 16 0.00 0.00
10:52 am 10:52 Partly Cloudy 52 11.1 28 -2.2 40 40 SSW 7 11 30.29 1026 10 16 0.00 0.00
11:52 am 11:52 Partly Cloudy 55 12.8 29 -1.7 37 37 SSW 6 9 30.27 1025 10 16 0.00 0.00
12:52 pm 12:52 Partly Cloudy 58 14.4 30 -1.1 35 35 S 5 7 30.24 1024 10 16 0.00 0.00
1:52 pm 13:52 Mostly Sunny 61 16.1 31 -0.6 32 32 VRB 3 6 30.21 1023 10 16 0.00 0.00
2:52 pm 14:52 Sunny 64 17.8 32 0 30 30 S 6 9 30.18 1022 10 16 0.00 0.00
3:52 pm 15:52 Sunny 65 18.3 31 -0.6 28 28 S 5 7 30.18 1022 10 16 0.00 0.00
4:52 pm 16:52 Sunny 63 17.2 32 0 31 31 S 5 7 30.18 1022 10 16 0.00 0.00
5:52 pm 17:52 Clear 53 11.7 32 0 45 45 SSE 6 9 30.17 1022 10 16 0.00 0.00
6:52 pm 18:52 Clear 51 10.6 33 0.6 50 50 SSE 6 9 30.17 1022 10 16 0.00 0.00
7:52 pm 19:52 Clear 48 8.9 33 0.6 56 56 SSE 5 7 30.17 1022 10 16 0.00 0.00
8:52 pm 20:52 Clear 47 8.3 33 0.6 59 59 SSE 7 11 30.17 1022 10 16 0.00 0.00
9:52 pm 21:52 Clear 45 7.2 34 1.1 66 66 SSE 7 11 30.16 1021 10 16 0.00 0.00
10:52 pm 22:52 Clear 44 6.7 32 0 63 63 SSE 8 13 30.14 1021 10 16 0.00 0.00
11:52 pm 23:52 Clear 41 5 32 0 70 70 SE 8 13 30.13 1020 10 16 0.00 0.00

Powered by AerisWeather